TimePDT,TemperatureF,Dew PointF,Humidity,Sea Level PressureIn,VisibilityMPH,Wind Direction,Wind SpeedMPH,Gust SpeedMPH,PrecipitationIn,Events,Conditions,WindDirDegrees,DateUTC
12:35 AM,35.6,24.8,65,30.23,10.0,Calm,Calm,-,N/A,,Clear,0,2013-09-24 07:35:00
12:55 AM,35.6,24.8,65,30.22,10.0,Calm,Calm,-,N/A,,Clear,0,2013-09-24 07:55:00
1:15 AM,35.6,23.0,60,30.22,10.0,Calm,Calm,-,N/A,,Clear,0,2013-09-24 08:15:00
1:35 AM,35.6,23.0,60,30.23,10.0,Calm,Calm,-,N/A,,Clear,0,2013-09-24 08:35:00
1:55 AM,35.6,23.0,60,30.23,10.0,Calm,Calm,-,N/A,,Clear,0,2013-09-24 08:55:00
2:35 AM,33.8,23.0,65,30.23,10.0,Calm,Calm,-,N/A,,Clear,0,2013-09-24 09:35:00
2:55 AM,33.8,23.0,65,30.22,10.0,Calm,Calm,-,N/A,,Clear,0,2013-09-24 09:55:00
3:15 AM,33.8,21.2,60,30.22,10.0,Calm,Calm,-,N/A,,Clear,0,2013-09-24 10:15:00
3:35 AM,33.8,21.2,60,30.22,10.0,Calm,Calm,-,N/A,,Clear,0,2013-09-24 10:35:00
3:55 AM,33.8,21.2,60,30.22,10.0,Calm,Calm,-,N/A,,Clear,0,2013-09-24 10:55:00
4:15 AM,33.8,21.2,60,30.22,10.0,Calm,Calm,-,N/A,,Clear,0,2013-09-24 11:15:00
4:35 AM,33.8,21.2,60,30.22,10.0,Calm,Calm,-,N/A,,Clear,0,2013-09-24 11:35:00
4:55 AM,33.8,21.2,60,30.22,10.0,Calm,Calm,-,N/A,,Clear,0,2013-09-24 11:55:00
5:15 AM,32.0,21.2,64,30.22,10.0,Calm,Calm,-,N/A,,Clear,0,2013-09-24 12:15:00
5:35 AM,32.0,21.2,64,30.22,10.0,Calm,Calm,-,N/A,,Clear,0,2013-09-24 12:35:00
5:55 AM,32.0,23.0,69,30.22,10.0,Calm,Calm,-,N/A,,Clear,0,2013-09-24 12:55:00
6:15 AM,32.0,23.0,69,30.22,10.0,Calm,Calm,-,N/A,,Clear,0,2013-09-24 13:15:00
6:35 AM,32.0,23.0,69,30.23,10.0,Calm,Calm,-,N/A,,Clear,0,2013-09-24 13:35:00
6:55 AM,32.0,23.0,69,30.23,10.0,Calm,Calm,-,N/A,,Clear,0,2013-09-24 13:55:00
7:15 AM,33.8,24.8,70,30.23,10.0,Calm,Calm,-,N/A,,Clear,0,2013-09-24 14:15:00
7:35 AM,35.6,26.6,70,30.23,10.0,Calm,Calm,-,N/A,,Clear,0,2013-09-24 14:35:00
7:55 AM,41.0,32.0,70,30.23,10.0,West,3.5,-,N/A,,Clear,270,2013-09-24 14:55:00
8:15 AM,44.6,33.8,66,30.23,10.0,West,3.5,-,N/A,,Clear,260,2013-09-24 15:15:00
8:35 AM,50.0,33.8,54,30.23,10.0,West,4.6,-,N/A,,Clear,260,2013-09-24 15:35:00
8:55 AM,53.6,33.8,47,30.23,10.0,West,4.6,-,N/A,,Clear,270,2013-09-24 15:55:00
9:15 AM,60.8,33.8,36,30.23,10.0,WSW,5.8,-,N/A,,Clear,250,2013-09-24 16:15:00
9:35 AM,62.6,32.0,32,30.23,10.0,West,6.9,-,N/A,,Clear,260,2013-09-24 16:35:00
9:55 AM,62.6,30.2,30,30.23,10.0,West,8.1,-,N/A,,Clear,270,2013-09-24 16:55:00
10:15 AM,64.4,28.4,26,30.23,10.0,WSW,5.8,-,N/A,,Clear,240,2013-09-24 17:15:00
10:55 AM,66.2,28.4,24,30.23,10.0,WSW,9.2,-,N/A,,Clear,250,2013-09-24 17:55:00
11:15 AM,68.0,28.4,23,30.22,10.0,West,12.7,-,N/A,,Clear,270,2013-09-24 18:15:00
11:35 AM,68.0,28.4,23,30.22,10.0,West,10.4,16.1,N/A,,Clear,260,2013-09-24 18:35:00
11:55 AM,68.0,30.2,24,30.22,10.0,West,11.5,18.4,N/A,,Clear,260,2013-09-24 18:55:00
12:15 PM,68.0,28.4,23,30.21,10.0,WSW,8.1,-,N/A,,Clear,240,2013-09-24 19:15:00
12:35 PM,68.0,28.4,23,30.21,10.0,West,8.1,-,N/A,,Clear,260,2013-09-24 19:35:00
12:55 PM,68.0,28.4,23,30.20,10.0,West,11.5,17.3,N/A,,Clear,260,2013-09-24 19:55:00
1:15 PM,68.0,28.4,23,30.20,10.0,West,10.4,-,N/A,,Clear,260,2013-09-24 20:15:00
1:35 PM,68.0,28.4,23,30.19,10.0,WSW,11.5,-,N/A,,Clear,250,2013-09-24 20:35:00
1:55 PM,68.0,28.4,23,30.18,10.0,West,11.5,-,N/A,,Clear,260,2013-09-24 20:55:00
2:15 PM,68.0,26.6,21,30.17,10.0,West,11.5,16.1,N/A,,Clear,260,2013-09-24 21:15:00
2:35 PM,68.0,28.4,23,30.17,10.0,West,13.8,-,N/A,,Clear,260,2013-09-24 21:35:00
2:55 PM,68.0,26.6,21,30.17,10.0,West,9.2,-,N/A,,Clear,260,2013-09-24 21:55:00
3:15 PM,68.0,26.6,21,30.16,10.0,WSW,8.1,-,N/A,,Clear,250,2013-09-24 22:15:00
3:35 PM,68.0,26.6,21,30.16,10.0,West,8.1,-,N/A,,Clear,260,2013-09-24 22:35:00
3:55 PM,68.0,26.6,21,30.16,10.0,West,9.2,-,N/A,,Clear,270,2013-09-24 22:55:00
4:15 PM,66.2,23.0,19,30.16,10.0,West,10.4,16.1,N/A,,Clear,260,2013-09-24 23:15:00
4:35 PM,64.4,26.6,24,30.15,10.0,West,12.7,16.1,N/A,,Clear,260,2013-09-24 23:35:00
4:55 PM,64.4,28.4,26,30.15,10.0,West,10.4,16.1,N/A,,Clear,260,2013-09-24 23:55:00
5:15 PM,62.6,30.2,30,30.15,10.0,West,12.7,-,N/A,,Clear,260,2013-09-25 00:15:00
5:35 PM,60.8,32.0,34,30.15,10.0,West,11.5,-,N/A,,Clear,260,2013-09-25 00:35:00
5:55 PM,60.8,32.0,34,30.15,10.0,WSW,5.8,-,N/A,,Clear,240,2013-09-25 00:55:00
6:15 PM,59.0,32.0,36,30.15,10.0,West,9.2,-,N/A,,Clear,270,2013-09-25 01:15:00
6:35 PM,59.0,32.0,36,30.15,10.0,West,8.1,-,N/A,,Clear,270,2013-09-25 01:35:00
6:55 PM,55.4,32.0,41,30.14,10.0,West,9.2,-,N/A,,Clear,280,2013-09-25 01:55:00
7:15 PM,53.6,32.0,44,30.14,10.0,West,6.9,-,N/A,,Clear,270,2013-09-25 02:15:00
7:35 PM,53.6,30.2,41,30.14,10.0,WNW,6.9,-,N/A,,Clear,290,2013-09-25 02:35:00
7:55 PM,53.6,30.2,41,30.14,10.0,WSW,4.6,-,N/A,,Clear,250,2013-09-25 02:55:00
8:15 PM,51.8,32.0,47,30.15,10.0,WSW,3.5,-,N/A,,Clear,250,2013-09-25 03:15:00
8:35 PM,51.8,32.0,47,30.15,10.0,WNW,3.5,-,N/A,,Clear,290,2013-09-25 03:35:00
8:55 PM,50.0,32.0,50,30.15,10.0,West,3.5,-,N/A,,Clear,270,2013-09-25 03:55:00
9:15 PM,46.4,30.2,53,30.15,10.0,Calm,Calm,-,N/A,,Clear,0,2013-09-25 04:15:00
9:35 PM,48.2,30.2,50,30.15,10.0,WSW,4.6,-,N/A,,Clear,250,2013-09-25 04:35:00
9:55 PM,51.8,28.4,41,30.14,10.0,SW,6.9,-,N/A,,Clear,230,2013-09-25 04:55:00
10:15 PM,50.0,30.2,47,30.14,10.0,WSW,4.6,-,N/A,,Clear,250,2013-09-25 05:15:00
10:35 PM,51.8,28.4,41,30.14,10.0,WSW,4.6,-,N/A,,Clear,250,2013-09-25 05:35:00
10:55 PM,50.0,28.4,43,30.13,10.0,West,4.6,-,N/A,,Clear,270,2013-09-25 05:55:00
11:15 PM,50.0,26.6,40,30.12,10.0,WSW,6.9,-,N/A,,Clear,240,2013-09-25 06:15:00
11:35 PM,50.0,24.8,37,30.11,10.0,WSW,4.6,-,N/A,,Clear,240,2013-09-25 06:35:00
11:55 PM,50.0,26.6,40,30.11,10.0,WSW,4.6,-,N/A,,Clear,240,2013-09-25 06:55:00